• In Hungary
  • List of Countries
  • For 7 days
  • Water Temperature
  • Satellite Maps
  • Weather Map
  • News
  • Weather Widgets
  • user-avatar
    Login

    Hourly Weather Matelandia

    Today, 14 November, Wednesday

    Time Temperature Precipitation Wind Pressure Humidity
    00:00 +27°C° 0 mm 2 mps 711 mmHg 73%
    01:00 +27°C° 0 mm 2 mps 711 mmHg 75%
    02:00 +27°C° 0 mm 2 mps 710 mmHg 78%
    03:00 +26°C° 0.5 mm 2 mps 710 mmHg 82%
    04:00 +25°C° 0.5 mm 2 mps 710 mmHg 85%
    05:00 +25°C° 0.5 mm 1 mps 711 mmHg 89%
    06:00 +25°C° 1.7 mm 2 mps 711 mmHg 88%
    07:00 +26°C° 1.7 mm 2 mps 712 mmHg 87%
    08:00 +27°C° 1.7 mm 3 mps 712 mmHg 86%
    09:00 +27°C° 1 mm 3 mps 713 mmHg 81%
    10:00 +28°C° 1 mm 2 mps 713 mmHg 75%
    11:00 +29°C° 1 mm 2 mps 713 mmHg 70%
    12:00 +29°C° 1.4 mm 2 mps 713 mmHg 73%
    13:00 +28°C° 1.4 mm 2 mps 713 mmHg 75%
    14:00 +28°C° 1.4 mm 2 mps 712 mmHg 78%
    15:00 +27°C° 1 mm 2 mps 712 mmHg 79%
    16:00 +26°C° 1 mm 2 mps 712 mmHg 79%
    17:00 +26°C° 1 mm 2 mps 712 mmHg 80%
    18:00 +24°C° 0 mm 2 mps 712 mmHg 83%
    19:00 +23°C° 0 mm 2 mps 712 mmHg 87%
    20:00 +22°C° 0 mm 1 mps 712 mmHg 90%
    21:00 +21°C° 0 mm 1 mps 712 mmHg 91%
    22:00 +21°C° 0 mm 1 mps 713 mmHg 92%
    23:00 +20°C° 0 mm 1 mps 713 mmHg 92%

    Tomorrow, 15 November, Thursday

    Time Temperature Precipitation Wind Pressure Humidity
    00:00 +20°C° 0 mm 1 mps 713 mmHg 92%
    01:00 +19°C° 0 mm 1 mps 712 mmHg 92%
    02:00 +18°C° 0 mm 2 mps 712 mmHg 91%
    03:00 +18°C° 0 mm 2 mps 712 mmHg 90%
    04:00 +17°C° 0 mm 2 mps 712 mmHg 89%
    05:00 +17°C° 0 mm 2 mps 712 mmHg 88%
    06:00 +19°C° 0 mm 2 mps 713 mmHg 78%
    07:00 +21°C° 0 mm 2 mps 713 mmHg 68%
    08:00 +24°C° 0 mm 2 mps 714 mmHg 59%
    09:00 +26°C° 0 mm 2 mps 714 mmHg 51%
    10:00 +29°C° 0 mm 2 mps 714 mmHg 43%
    11:00 +31°C° 0 mm 2 mps 714 mmHg 36%
    12:00 +32°C° 0 mm 2 mps 713 mmHg 33%
    13:00 +32°C° 0 mm 2 mps 713 mmHg 30%
    14:00 +34°C° 0 mm 2 mps 712 mmHg 28%
    15:00 +32°C° 0 mm 1 mps 712 mmHg 33%
    16:00 +31°C° 0 mm 1 mps 712 mmHg 38%
    17:00 +29°C° 0 mm 1 mps 711 mmHg 44%
    18:00 +27°C° 0 mm 1 mps 712 mmHg 49%
    19:00 +25°C° 0 mm 1 mps 712 mmHg 55%
    20:00 +23°C° 0 mm 1 mps 712 mmHg 61%
    21:00 +22°C° 0 mm 1 mps 713 mmHg 63%
    22:00 +21°C° 0 mm 1 mps 713 mmHg 66%
    23:00 +19°C° 0 mm 2 mps 713 mmHg 69%

    Day after tomorrow, 16 November, Friday

    Time Temperature Precipitation Wind Pressure Humidity
    00:00 +20°C° 0 mm 1 mps 713 mmHg 70%
    01:00 +20°C° 0 mm 1 mps 712 mmHg 70%
    02:00 +20°C° 0 mm 1 mps 712 mmHg 70%
    03:00 +19°C° 0 mm 2 mps 712 mmHg 74%
    04:00 +20°C° 0 mm 2 mps 713 mmHg 78%
    05:00 +20°C° 0 mm 2 mps 713 mmHg 81%
    06:00 +23°C° 0 mm 2 mps 714 mmHg 76%
    07:00 +26°C° 0 mm 2 mps 715 mmHg 71%
    08:00 +28°C° 0 mm 2 mps 715 mmHg 66%
    09:00 +30°C° 0 mm 2 mps 715 mmHg 61%
    10:00 +31°C° 0 mm 2 mps 715 mmHg 56%
    11:00 +34°C° 0 mm 2 mps 715 mmHg 51%
    12:00 +34°C° 0.2 mm 2 mps 715 mmHg 51%
    13:00 +34°C° 0.2 mm 2 mps 714 mmHg 50%
    14:00 +33°C° 0.2 mm 1 mps 713 mmHg 50%
    15:00 +33°C° 0.3 mm 1 mps 713 mmHg 54%
    16:00 +32°C° 0.3 mm 1 mps 713 mmHg 58%
    17:00 +31°C° 0.3 mm 1 mps 713 mmHg 61%
    18:00 +29°C° 0 mm 1 mps 713 mmHg 67%
    19:00 +28°C° 0 mm 1 mps 713 mmHg 73%
    20:00 +26°C° 0 mm 1 mps 713 mmHg 79%
    21:00 +25°C° 0 mm 1 mps 713 mmHg 81%
    22:00 +25°C° 0 mm 1 mps 713 mmHg 83%
    23:00 +25°C° 0 mm 1 mps 713 mmHg 85%

    17 November, Saturday

    Time Temperature Precipitation Wind Pressure Humidity
    00:00 +25°C° 0 mm 2 mps 713 mmHg 84%
    01:00 +24°C° 0 mm 3 mps 713 mmHg 84%
    02:00 +24°C° 0 mm 3 mps 713 mmHg 83%
    03:00 +24°C° 0 mm 3 mps 713 mmHg 81%
    04:00 +24°C° 0 mm 3 mps 713 mmHg 78%
    05:00 +22°C° 0 mm 3 mps 713 mmHg 75%
    06:00 +25°C° 0 mm 4 mps 714 mmHg 69%
    07:00 +26°C° 0 mm 4 mps 715 mmHg 63%
    08:00 +28°C° 0 mm 4 mps 715 mmHg 58%
    09:00 +29°C° 0 mm 4 mps 715 mmHg 54%
    10:00 +32°C° 0 mm 4 mps 715 mmHg 51%
    11:00 +34°C° 0 mm 4 mps 715 mmHg 48%
    12:00 +34°C° 0 mm 4 mps 714 mmHg 47%
    13:00 +35°C° 0 mm 4 mps 713 mmHg 46%
    14:00 +35°C° 0 mm 4 mps 712 mmHg 46%
    15:00 +34°C° 0 mm 3 mps 712 mmHg 49%
    16:00 +34°C° 0 mm 3 mps 712 mmHg 53%
    17:00 +32°C° 0 mm 2 mps 712 mmHg 56%
    18:00 +31°C° 0 mm 3 mps 712 mmHg 60%
    19:00 +29°C° 0 mm 3 mps 711 mmHg 64%
    20:00 +28°C° 0 mm 3 mps 711 mmHg 68%
    21:00 +28°C° 0 mm 3 mps 711 mmHg 69%
    22:00 +27°C° 0 mm 3 mps 711 mmHg 70%
    23:00 +27°C° 0 mm 3 mps 710 mmHg 71%

    18 November, Sunday

    Time Temperature Precipitation Wind Pressure Humidity
    00:00 +27°C° 0 mm 4 mps 710 mmHg 72%
    01:00 +27°C° 0 mm 4 mps 710 mmHg 72%
    02:00 +27°C° 0 mm 4 mps 709 mmHg 73%
    03:00 +26°C° 0.4 mm 4 mps 709 mmHg 75%
    04:00 +25°C° 0.4 mm 4 mps 709 mmHg 78%
    05:00 +25°C° 0.4 mm 4 mps 710 mmHg 81%
    06:00 +25°C° 1.9 mm 4 mps 710 mmHg 84%
    07:00 +25°C° 1.9 mm 4 mps 711 mmHg 87%
    08:00 +23°C° 1.9 mm 4 mps 712 mmHg 91%
    09:00 +21°C° 6.1 mm 4 mps 712 mmHg 91%
    10:00 +19°C° 6.1 mm 3 mps 712 mmHg 91%
    11:00 +18°C° 6.1 mm 3 mps 712 mmHg 91%
    12:00 +18°C° 0.5 mm 3 mps 712 mmHg 89%
    13:00 +18°C° 0.5 mm 2 mps 712 mmHg 87%
    14:00 +19°C° 0.5 mm 2 mps 712 mmHg 84%
    15:00 +20°C° 0 mm 2 mps 712 mmHg 81%
    16:00 +20°C° 0 mm 2 mps 712 mmHg 78%
    17:00 +21°C° 0 mm 2 mps 712 mmHg 75%
    18:00 +20°C° 0 mm 2 mps 713 mmHg 78%
    19:00 +21°C° 0 mm 1 mps 714 mmHg 82%
    20:00 +20°C° 0 mm 1 mps 714 mmHg 85%
    21:00 +20°C° 0 mm 1 mps 714 mmHg 87%
    22:00 +20°C° 0 mm 1 mps 714 mmHg 89%
    23:00 +19°C° 0 mm 2 mps 715 mmHg 91%

    19 November, Monday

    Time Temperature Precipitation Wind Pressure Humidity
    00:00 +18°C° 0 mm 2 mps 714 mmHg 91%
    01:00 +18°C° 0 mm 2 mps 714 mmHg 91%
    02:00 +17°C° 0 mm 2 mps 714 mmHg 91%
    03:00 +17°C° 0 mm 2 mps 714 mmHg 91%
    04:00 +16°C° 0 mm 2 mps 714 mmHg 92%
    05:00 +15°C° 0 mm 2 mps 714 mmHg 93%
    06:00 +17°C° 0 mm 2 mps 715 mmHg 81%
    07:00 +19°C° 0 mm 2 mps 715 mmHg 70%
    08:00 +21°C° 0 mm 2 mps 716 mmHg 58%
    09:00 +24°C° 0 mm 2 mps 716 mmHg 49%
    10:00 +26°C° 0 mm 2 mps 716 mmHg 40%
    11:00 +28°C° 0 mm 2 mps 716 mmHg 31%
    12:00 +29°C° 0 mm 2 mps 715 mmHg 29%
    13:00 +30°C° 0 mm 2 mps 715 mmHg 27%
    14:00 +31°C° 0 mm 2 mps 714 mmHg 24%
    15:00 +30°C° 0 mm 1 mps 714 mmHg 30%
    16:00 +28°C° 0 mm 1 mps 713 mmHg 36%
    17:00 +27°C° 0 mm 1 mps 713 mmHg 42%
    18:00 +25°C° 0 mm 1 mps 713 mmHg 48%
    19:00 +22°C° 0 mm 1 mps 713 mmHg 54%
    20:00 +20°C° 0 mm 1 mps 713 mmHg 59%
    21:00 +19°C° 0 mm 1 mps 714 mmHg 62%
    22:00 +18°C° 0 mm 1 mps 714 mmHg 65%
    23:00 +18°C° 0 mm 1 mps 714 mmHg 68%
    Show more